Milford, UT

12:20 AM MDT on July 24, 2017 (GMT -0600)
Milford Municipal

Weather History for KMLF - August, 2014

Change the Weather History Date:

Tuesday, August 19, 2014

  Actual Average Record
Temperature  
Mean Temperature 65 °F -  
Max Temperature 75 °F 88 °F 96 °F (2001)
Min Temperature 57 °F 54 °F 32 °F (2011)
Growing Degree Days 15 (Base 50)    
Moisture  
Dew Point 55 °F    
Average Humidity 70    
Maximum Humidity 93    
Minimum Humidity 41    
Precipitation  
Precipitation 0.35 in - - ()
Sea Level Pressure  
Sea Level Pressure 29.85 in    
Wind  
Wind Speed 8 mph (SSE)    
Max Wind Speed 17 mph    
Max Gust Speed 23 mph    
Visibility 10 miles    
Events Rain , Thunderstorm    
Averages and records for this station are not official NWS values.
T = Trace of Precipitation, MM = Missing Value Source: NWS Daily Summary

Daily Weather History Graph

Daily Weather History Graph

Search for Another Location

Airport or City:

Trip Planner

Search our weather history database for the weather conditions in past years. The results will help you decide how hot, cold, wet, or windy it might be!

Date:

Astronomy

Aug. 19, 2014 Rise Set
Actual Time 6:50 AM MDT 8:20 PM MDT
Civil Twilight 6:22 AM MDT 8:48 PM MDT
Nautical Twilight 5:48 AM MDT 9:21 PM MDT
Astronomical Twilight 5:12 AM MDT 9:57 PM MDT
Moon 1:46 AM MDT (8/19) 4:18 PM MDT (8/19)
Length of Visible Light 14h 26m
Length of Day
13h 30m
Waning Crescent, 28% of the Moon is Illuminated
Aug 19
Waning Crescent
Aug 25
New
Sep 2
First Quarter
Sep 8
Full
Sep 15
Last Quarter

Hourly Weather History & Observations

Time (MDT) Temp. Dew Point Humidity Pressure Visibility Wind Dir Wind Speed Gust Speed Precip Events Conditions
1:52 AM 63.0 °F 55.9 °F 78% 29.82 in 10.0 mi ENE 3.5 mph - N/A   Overcast
2:52 AM 64.4 °F 55.4 °F 73% 30.04 in 10.0 mi NNW 8.1 mph - N/A   Overcast
3:52 AM 63.0 °F 55.9 °F 78% 29.81 in 10.0 mi Calm Calm - 0.00 in   Overcast
4:52 AM 62.1 °F 55.9 °F 80% 29.81 in 10.0 mi NNE 10.4 mph - 0.00 in   Overcast
5:52 AM 60.1 °F 55.0 °F 83% 29.83 in 10.0 mi NNE 9.2 mph - N/A   Partly Cloudy
6:52 AM 60.1 °F 55.9 °F 86% 29.88 in 10.0 mi NNE 4.6 mph - N/A   Overcast
7:52 AM 60.1 °F 57.0 °F 90% 29.93 in 6.0 mi East 3.5 mph - 0.01 in Rain Rain
8:52 AM 60.1 °F 55.0 °F 83% 29.92 in 10.0 mi NE 8.1 mph - 0.04 in   Mostly Cloudy
9:52 AM 59.0 °F 54.0 °F 83% 29.95 in 6.0 mi Calm Calm - 0.06 in Rain Rain
10:52 AM 57.9 °F 55.0 °F 90% 29.97 in 3.0 mi South 8.1 mph - 0.15 in Rain Heavy Rain
11:52 AM 57.9 °F 55.9 °F 93% 29.94 in 10.0 mi SE 11.5 mph - 0.10 in Rain Light Rain
12:52 PM 63.0 °F 57.9 °F 84% 29.86 in 10.0 mi South 17.3 mph - 0.01 in   Mostly Cloudy
1:52 PM 69.1 °F 55.0 °F 61% 29.83 in 10.0 mi SW 11.5 mph - N/A   Partly Cloudy
2:52 PM 69.8 °F 55.4 °F 60% 29.99 in 10.0 mi South 16.1 mph 23.0 mph N/A   Clear
3:52 PM 71.1 °F 55.0 °F 57% 29.79 in 10.0 mi SSW 13.8 mph - N/A   Clear
4:52 PM 73.0 °F 55.9 °F 55% 29.76 in 10.0 mi SSW 13.8 mph - N/A   Clear
5:52 PM 73.9 °F 55.0 °F 52% 29.74 in 10.0 mi SSW 12.7 mph - N/A   Clear
6:52 PM 73.9 °F 53.1 °F 48% 29.73 in 10.0 mi SSW 16.1 mph - N/A   Clear
7:52 PM 71.1 °F 55.0 °F 57% 29.74 in 10.0 mi SSW 13.8 mph - N/A   Clear
8:52 PM 69.1 °F 55.9 °F 63% 29.75 in 10.0 mi South 11.5 mph - N/A   Clear
9:06 PM 69.1 °F 55.9 °F 63% 29.92 in 10.0 mi South 11.5 mph - N/A Thunderstorm Clear
9:21 PM 68.0 °F 55.9 °F 65% 29.93 in 10.0 mi South 10.4 mph - N/A   Clear
9:52 PM 68.0 °F 55.9 °F 65% 29.79 in 10.0 mi South 12.7 mph - N/A   Mostly Cloudy
10:52 PM 66.0 °F 55.9 °F 70% 29.83 in 10.0 mi North 6.9 mph - N/A   Overcast
11:52 PM 66.0 °F 55.0 °F 68% 29.84 in 10.0 mi ENE 4.6 mph - N/A   Mostly Cloudy